GW0870 Weather Reports


time (UTC)temp
C
wind
direction
speed
KPH
gust
KPH
rain 1hr
cm
rain 24hr
cm
rain mn
cm
humidity
%
barometer
mb
20260903014613 25 0 0.0 0.0 0.00 0.00 0.00 87 1018.3
20260903013102 26 0 0.0 0.0 0.00 0.00 0.00 86 1018.0
20260903011614 26 0 0.0 0.0 0.00 0.00 0.00 85 1017.8
20260903010108 26 0 0.0 0.0 0.00 0.00 0.00 85 1017.6
20260903004550 27 0 0.0 0.0 0.00 0.00 0.00 83 1017.5
20260903003113 27 0 0.0 0.0 0.00 0.00 0.00 81 1017.4
20260903001601 28 0 0.0 0.0 0.00 0.00 0.00 77 1017.4
20260903000052 28 0 0.0 0.0 0.00 0.00 0.00 76 1017.4
20260902234554 30 0 0.0 0.0 0.00 0.00 0.00 72 1017.3
20260902233054 31 0 0.0 0.0 0.00 0.00 0.00 69 1017.3
20260902231552 32 0 0.0 0.0 0.00 0.00 0.00 65 1017.3
20260902230059 33 0 0.0 0.0 0.00 0.00 0.00 59 1017.2
20260902224552 35 0 0.0 1.6 0.00 0.00 0.00 51 1017.1
20260902223056 36 0 0.0 0.0 0.00 0.00 0.00 48 1017.1
20260902221557 36 0 0.0 1.6 0.00 0.00 0.00 41 1017.2
20260902220101 37 0 0.0 1.6 0.00 0.00 0.00 42 1017.2
20260902214555 37 0 0.0 3.2 0.00 0.00 0.00 42 1017.3
20260902213104 36 0 1.6 3.2 0.00 0.00 0.00 43 1017.4
20260902211558 37 0 0.0 3.2 0.00 0.00 0.00 45 1017.4
20260902210054 36 234 0.0 3.2 0.00 0.00 0.00 43 1017.5
20260902204554 36 0 0.0 4.8 0.00 0.00 0.00 42 1017.6
20260902203049 37 0 0.0 3.2 0.00 0.00 0.00 44 1017.4
20260902201602 37 296 0.0 3.2 0.00 0.00 0.00 45 1017.5
20260902200056 37 242 0.0 4.8 0.00 0.00 0.00 44 1017.7
20260902194556 36 211 1.6 4.8 0.00 0.00 0.00 44 1017.9
20260902193047 36 80 0.0 3.2 0.00 0.00 0.00 49 1018.0
20260902191553 35 221 1.6 6.4 0.00 0.00 0.00 45 1018.0
20260902190056 36 236 1.6 6.4 0.00 0.00 0.00 47 1018.4
20260902184552 35 153 0.0 3.2 0.00 0.00 0.00 46 1018.4
20260902183048 36 304 0.0 4.8 0.00 0.00 0.00 49 1018.4
20260902181557 36 245 1.6 4.8 0.00 0.00 0.00 45 1018.6
20260902180056 36 92 0.0 14.5 0.00 0.00 0.00 46 1018.7
20260902174604 36 0 1.6 6.4 0.00 0.00 0.00 48 1018.8
20260902173057 35 268 0.0 8.0 0.00 0.00 0.00 47 1018.9
20260902171600 36 103 0.0 16.1 0.00 0.00 0.00 52 1019.2
20260902170054 35 111 0.0 6.4 0.00 0.00 0.00 49 1019.3
20260902164559 34 17 0.0 3.2 0.00 0.00 0.00 53 1019.5
20260902163055 34 223 1.6 4.8 0.00 0.00 0.00 52 1019.7
20260902161605 35 41 0.0 6.4 0.00 0.00 0.00 52 1019.7
20260902160107 34 340 0.0 1.6 0.00 0.00 0.00 56 1019.8
20260902154600 34 238 0.0 1.6 0.00 0.00 0.00 55 1019.9
20260902153050 33 0 0.0 3.2 0.00 0.00 0.00 60 1019.8
20260902151611 33 26 1.6 4.8 0.00 0.00 0.00 58 1019.8
20260902150052 32 157 0.0 1.6 0.00 0.00 0.00 64 1019.7
20260902144555 32 0 0.0 1.6 0.00 0.00 0.00 66 1019.8
20260902143052 31 210 0.0 1.6 0.00 0.00 0.00 67 1019.8
20260902141553 31 0 0.0 1.6 0.00 0.00 0.00 68 1019.6
20260902134602 30 0 0.0 1.6 0.00 0.00 0.00 72 1019.7
20260902133051 30 0 0.0 1.6 0.00 0.00 0.00 73 1019.8
20260902131601 28 0 0.0 0.0 0.00 0.00 0.00 81 1019.8
20260902130056 25 0 0.0 0.0 0.00 0.00 0.00 90 1019.9
20260902124552 23 0 0.0 1.6 0.00 0.00 0.00 93 1019.8
20260902123051 22 0 0.0 0.0 0.00 0.00 0.00 95 1019.8
20260902121601 22 0 0.0 0.0 0.00 0.00 0.00 94 1019.6
20260902120059 21 0 0.0 0.0 0.00 0.00 0.00 94 1019.5
20260902114554 21 0 0.0 0.0 0.00 0.00 0.00 94 1019.5
20260902113052 21 0 0.0 0.0 0.00 0.00 0.00 94 1019.3
20260902111601 21 0 0.0 0.0 0.00 0.00 0.00 94 1019.3
20260902110101 21 0 0.0 0.0 0.00 0.00 0.00 94 1019.3
20260902104615 21 0 0.0 0.0 0.00 0.00 0.00 93 1019.2
20260902103048 21 0 0.0 0.0 0.00 0.00 0.00 93 1019.1
20260902101555 21 0 0.0 0.0 0.00 0.00 0.00 93 1019.1
20260902100109 21 0 0.0 0.0 0.00 0.00 0.00 93 1018.9
20260902094555 21 0 0.0 0.0 0.00 0.00 0.00 94 1018.9
20260902093050 22 0 0.0 0.0 0.00 0.00 0.00 94 1018.9
20260902091552 22 0 0.0 1.6 0.00 0.00 0.00 94 1018.8
20260902084557 22 0 0.0 0.0 0.00 0.00 0.00 94 1018.7
20260902083106 22 0 0.0 0.0 0.00 0.00 0.00 94 1018.7
20260902081612 22 0 0.0 0.0 0.00 0.00 0.00 94 1018.6
20260902080100 22 0 0.0 0.0 0.00 0.00 0.00 94 1018.5
20260902074559 22 0 0.0 0.0 0.00 0.00 0.00 93 1018.5
20260902073050 22 0 0.0 0.0 0.00 0.00 0.00 94 1018.5
20260902071601 22 0 0.0 0.0 0.00 0.00 0.00 93 1018.5
20260902070059 22 0 0.0 0.0 0.00 0.00 0.00 93 1018.5
20260902064558 22 0 0.0 0.0 0.00 0.00 0.00 93 1018.6
20260902063113 22 0 0.0 0.0 0.00 0.00 0.00 93 1018.6
20260902061557 22 0 0.0 0.0 0.00 0.00 0.00 93 1018.5
20260902060126 22 0 0.0 0.0 0.00 0.00 0.00 93 1018.4
20260902054554 22 0 0.0 0.0 0.00 0.00 0.00 93 1018.3
20260902053051 22 0 0.0 0.0 0.00 0.00 0.00 93 1018.3
20260902051607 22 0 0.0 0.0 0.00 0.00 0.00 93 1018.4
20260902050055 22 0 0.0 0.0 0.00 0.00 0.00 92 1018.2
20260902044554 23 0 0.0 0.0 0.00 0.00 0.00 92 1018.2
20260902043101 23 0 0.0 0.0 0.00 0.00 0.00 92 1018.2
20260902041554 23 0 0.0 0.0 0.00 0.00 0.00 91 1018.3
20260902040056 23 0 0.0 0.0 0.00 0.00 0.00 91 1018.3
20260902034553 23 0 0.0 0.0 0.00 0.00 0.00 91 1018.2
20260902033106 23 0 0.0 0.0 0.00 0.00 0.00 91 1018.3
20260902031558 23 0 0.0 0.0 0.00 0.00 0.00 90 1018.1
20260902030056 23 0 0.0 0.0 0.00 0.00 0.00 90 1018.1
20260902024603 23 0 0.0 0.0 0.00 0.00 0.00 89 1018.1
20260902023059 24 0 0.0 0.0 0.00 0.00 0.00 89 1018.1
20260902021555 24 0 0.0 0.0 0.00 0.00 0.00 89 1018.1
20260902020141 24 0 0.0 0.0 0.00 0.00 0.00 88 1018.0